Weather in Tanayka

Russia / Republic of Tatarstan     55°44′30″N   51°54′56″E
temp.,
°C
wind,
m/s
gust,
m/s
humid.,
%
clouds,
%
prec.,
mm/h
press.,
hPa
HPBL,
m
13 april, tue
tue1300:00+6ese399097 0.0 1038238
03:00+6e3794100 0.0 1038150
06:00+6e3598100 0.0 1038146
09:00+10se3485100 0.0 1037309
12:00+14s3475100 0.0 1036504
15:00+16s346747 0.0 1035559
18:00+13sse237836 0.0 103323
21:00+10s338973 0.0 103327
14 april, wed
wed1400:00+9ssw229068 0.0 103314
03:00+8s228844 0.0 103312
06:00+8ssw22855 0.0 103232
09:00+13s336126 0.0 1031331
12:00+17s34515 0.0 1030813
15:00+18sse34495 0.0 10281027
18:00+15sse34675 0.0 102753
21:00+11sse33685 0.0 102628
15 april, thu
thu1500:00+10sse22725 0.0 102513
03:00+8s22804 0.0 102514
06:00+8s23792 0.0 102463
09:00+13ssw35590 0.0 1023430
12:00+17ssw46470 0.0 10211157
15:00+18sw45431 0.0 10201494
18:00+15wsw11573 0.0 101911
21:00+12wsw00610 0.0 101810
16 april, fri
fri1600:00+11ese00670 0.0 101710
03:00+9ne11720 0.0 101710
06:00+9nne22732 0.0 101738
09:00+12ne667516 0.0 1017531
12:00+13ne766587 0.0 10181017
15:00+9ne6973100 0.0 1019609
18:00+9ne696829 0.0 1020654
21:00+5ne511818 0.0 1021470
17 april, sat
sat1700:00+3nne411830 0.0 1021351
03:00+2n37890 0.0 1022152
06:00+2n39740 0.0 1022283
09:00+7n69455 0.0 10221600
12:00+7n911365 0.0 10232013
15:00+7n1013285 0.0 10242317
18:00+4n812320 0.0 10261724
21:00+1nne511381 0.0 1028484